Flag for U.S.A. Weather past 2 weeks in Wailuku, Hawaii, U.S.A.

Now
66 °F

Clear.


Feels Like: 66 °F
Forecast: 73 / 87 °F
Wind: 5 mph from Southeast

Location: Kahului Airport

Current Time: Jul 29, 2014 at 6:59:06 AM

Latest Report: Jul 29, 2014 at 5:54 AM


Visibility: 10 mi

Pressure: 30.05 "Hg

Humidity: 90%

Dew point: 63 °F

Location of WailukuLocation

Historic Weather in Wailuku — Graph

°F

Wailuku temperature yesterday

Maximum temperature yesterday: 90 °F (at 1:54 PM)
Minimum temperature yesterday: 72 °F (at 6:54 AM)
Average temperature yesterday: 81 °F

Past Weeks' High & Low Weather Summary

 TemperatureHumidityPressure
High90 °F (Jul 14, 12:54 PM)97% (Jul 20, 10:54 PM)30.11 "Hg (Jul 20, 10:54 PM)
Low65 °F (Jul 25, 4:54 AM)37% (Jul 18, 2:54 PM)29.88 "Hg (Jul 20, 2:05 AM)
Average79 °F73%30.00 "Hg
* Reported Jul 14 4:02 AM — Jul 29 4:54 AM, Wailuku, Weather by CustomWeather, © 2014

Note: Actual official high and low records may vary slightly from our data, if they occured in-between our weather recording intervals... More about our weather records

Advertising

Wailuku weather history for previous 24 hours

 ConditionsComfort  
Time TempWeatherWind HumidityBarometerVisibility
4:54 AM
Jul 29
68 °FClear.No wind87%30.04 "Hg8 mi
3:54 AM67 °FClear.No wind90%30.03 "Hg10 mi
2:54 AM70 °FClear.No wind84%30.03 "Hg8 mi
1:54 AM70 °FClear.No wind84%30.04 "Hg7 mi
12:54 AM75 °FClear.7 mph74%30.04 "Hg10 mi
11:54 PM
Jul 28
76 °FClear.8 mph74%30.05 "Hg10 mi
10:54 PM76 °FClear.3 mph72%30.06 "Hg10 mi
9:54 PM76 °FPassing clouds.10 mph72%30.05 "Hg10 mi
8:54 PM77 °FClear.10 mph69%30.03 "Hg10 mi
7:54 PM78 °FPassing clouds.13 mph69%30.02 "Hg10 mi
6:54 PM80 °FScattered clouds.13 mph67%30.00 "Hg10 mi
5:54 PM84 °FScattered clouds.20 mph57%29.98 "Hg10 mi
4:54 PM86 °FScattered clouds.24 mph57%29.98 "Hg10 mi
3:54 PM89 °FScattered clouds.21 mph52%29.98 "Hg10 mi
2:54 PM90 °FScattered clouds.20 mph50%29.98 "Hg10 mi
1:54 PM90 °FScattered clouds.23 mph50%29.99 "Hg10 mi
12:54 PM88 °FScattered clouds.23 mph52%30.00 "Hg10 mi
11:54 AM88 °FScattered clouds.22 mph54%30.02 "Hg10 mi
10:54 AM89 °FPassing clouds.21 mph50%30.02 "Hg10 mi
9:54 AM86 °FSunny.20 mph57%30.03 "Hg10 mi
8:54 AM84 °FPassing clouds.17 mph63%30.03 "Hg10 mi
7:54 AM81 °FPassing clouds.14 mph67%30.03 "Hg10 mi
6:54 AM72 °FPassing clouds.7 mph81%30.03 "Hg10 mi
Weather by CustomWeather, © 2014

See weather overviewHow to use our weather pages